Regional Weather Roundup
Issued by NWS

Home | Current Version | Previous Version | Graphics & Text | Print | Product List | Glossary On
Versions: 1 2 3 4 5 6 7 8 9 10 11 12 13 14 15 16 17 18 19 20 21 22 23 24 25 26 27 28 29 30 31 32 33 34 35 36 37 38 39 40 41 42 43 44 45 46 47 48 49 50
000
ASUS43 KFSD 021410
RWRSD

WEATHER ROUNDUP FOR SOUTH DAKOTA
NATIONAL WEATHER SERVICE SIOUX FALLS SD
800 AM CST MON MAR 02 2015

NOTE: "FAIR" INDICATES FEW OR NO CLOUDS BELOW 12,000 FEET WITH NO
SIGNIFICANT WEATHER AND/OR OBSTRUCTIONS TO VISIBILITY.


SDZ001>005-009-010-012>017-021500-
NORTHWEST AND NORTH CENTRAL SOUTH DAKOTA

CITY           SKY/WX    TMP DP  RH WIND       PRES   REMARKS
BUFFALO          N/A     12   6  77 S7        29.88F WCI   1
FAITH            N/A     14   6  70 SE18      30.03F WCI  -3
MOBRIDGE       CLEAR     13   9  84 SE17      30.16F WCI  -4
$$

SDZ012>016-024>037-041>051-057-063-072>074-021500-
SOUTHWEST AND SOUTH CENTRAL SOUTH DAKOTA

CITY           SKY/WX    TMP DP  RH WIND       PRES   REMARKS
RAPID CTY ARPT PTCLDY    17   9  70 S12       29.97F WCI   4
PIERRE         PTCLDY    15  11  83 SE12      30.22F WCI   2
CUSTER         PTCLDY    17  12  80 SW7       29.89F WCI   8
ELLSWORTH AFB  PTCLDY    19  10  67 S21       29.93F WCI   3
PHILIP         MOCLDY    19  10  68 E8        30.11F WCI   9
PINE RIDGE     MOCLDY    28  14  55 S16G25    30.02F WCI  16
WINNER         CLOUDY    25   7  46 S17G28    30.23F WCI  12
$$

SDZ004>011-016>023-039-040-021500-
NORTHEAST SOUTH DAKOTA

CITY           SKY/WX    TMP DP  RH WIND       PRES   REMARKS
ABERDEEN       MOCLDY     7   1  76 S7        30.34F HAZE    WCI  -5
WATERTOWN      PTCLDY     3  -1  83 S9        30.35S WCI -12
SISSETON         N/A      8   2  76 SW6       30.37S WCI  -2
$$

SDZ017-020-022-023-036>040-048>070-021500-
SOUTHEAST SOUTH DAKOTA

CITY           SKY/WX    TMP DP  RH WIND       PRES   REMARKS
SIOUX FALLS    MOCLDY    10   6  84 CALM      30.42R
HURON          PTCLDY     8   6  92 SE8       30.36F WCI  -4
CHAMBERLAIN    CLOUDY    18  13  80 SE12      30.29F WCI   5
MITCHELL       PTCLDY    15  11  83 SE13      30.39F WCI   1
YANKTON        MOCLDY    14  12  92 E5        30.44S WCI   6
$$

ABBREVIATIONS USED IN REMARKS
   TC - TEMPERATURE IN CELSIUS
  WCI - WIND CHILL INDEX
   HX - HEAT INDEX
  VSB - VISIBILITY



USA.gov is the U.S. government's official web portal to all federal, state and local government web resources and services.